Simultaneous Nadir Overpasses (SNOs) Predictions

Prediction of SNOs between NOAA-19 and TERRA Satellite Orbit:

Table of predicted SNOs for the next 14.0 days since TLE Epoch: 10/15/2016
Index Date (NOAA-19) Time (NOAA-19) Lat,Lon (NOAA-19) SZA (NOAA-19 ) Date (TERRA) Time (TERRA) Lat,Lon (TERRA) SZA (TERRA ) Distance(km) Time Diff (sec)
1 10/15/2016 10:50:02 -74.44,-154.31 96.57 10/15/2016 10:51:02 -74.43,-154.21 96.56 3.12 60
2 10/15/2016 11:41:03 74.32, 13.24 83.35 10/15/2016 11:40:29 74.35, 13.24 83.37 2.82 34
3 10/17/2016 16:24:03 74.42, -57.71 84.24 10/17/2016 16:24:45 74.39, -57.74 84.22 3.12 42
4 10/17/2016 17:14:59 -74.32, 109.81 95.83 10/17/2016 17:14:14 -74.32, 109.74 95.85 2.20 45
5 10/19/2016 21:57:58 -74.40, 38.92 94.96 10/19/2016 21:58:29 -74.41, 38.87 94.95 1.80 31
6 10/19/2016 22:49:01 74.33,-153.67 85.00 10/19/2016 22:47:56 74.32,-153.68 84.97 0.74 65
7 10/22/2016 03:32:00 74.39, 135.49 85.83 10/22/2016 03:32:11 74.41, 135.44 85.85 2.41 11
8 10/22/2016 04:22:54 -74.24, -56.86 94.28 10/22/2016 04:21:41 -74.29, -57.20 94.27 11.48 73
9 10/24/2016 08:15:11 75.02, 62.99 87.13 10/24/2016 08:16:18 74.89, 65.57 87.16 75.94 67
10 10/24/2016 09:05:55 -74.42,-128.03 93.36 10/24/2016 09:05:55 -74.42,-127.97 93.36 2.07 0
11 10/26/2016 13:48:57 -74.65, 160.63 92.41 10/26/2016 13:50:09 -74.54, 161.26 92.47 22.29 72
12 10/26/2016 14:39:57 74.38, -31.39 87.39 10/26/2016 14:39:37 74.40, -31.43 87.39 2.32 20
13 10/28/2016 19:22:56 74.46,-102.28
